Waarnemingen

Advertentie
Mijn weer
Bilbao/Aeropuerto, Spanje (8025): temperatuur & dauwpunt: 12.10.2017 05:00:00 - 18.10.2017 05:00:00 (CEST)Bilbao/Aeropuerto, Spanje (8025): windsnelheid: 12.10.2017 05:00:00 - 18.10.2017 05:00:00 (CEST)Bilbao/Aeropuerto, Spanje (8025): windrichting: 12.10.2017 05:00:00 - 18.10.2017 05:00:00 (CEST)Bilbao/Aeropuerto, Spanje (8025): luchtdruk: 12.10.2017 05:00:00 - 18.10.2017 05:00:00 (CEST)Bilbao/Aeropuerto, Spanje (8025): zicht: 12.10.2017 05:00:00 - 18.10.2017 05:00:00 (CEST)
Datum & Tijd tt [°C] td [°C] ff [km/u] ff [kn] dd ppp [hPa] vv [km]
18.10.2017 05:00:00 13,8 13,6 0 0 N 1012,2 15
18.10.2017 04:00:00 - - - - - - -
18.10.2017 03:00:00 - - - - - - -
18.10.2017 02:00:00 - - - - - - -
18.10.2017 01:00:00 - - - - - - -
18.10.2017 00:00:00 17,6 17,1 0 0 N 1014,5 -
17.10.2017 23:00:00 17,8 17,3 0 0 N 1014,8 8
17.10.2017 22:00:00 18,4 17,4 0 0 N 1014,7 -
17.10.2017 21:00:00 18,4 17,6 2 1 WNW 1014,9 -
17.10.2017 20:00:00 18,7 17,4 0 0 N 1014,9 5
17.10.2017 19:00:00 19,1 17,6 4 2 WNW 1014,9 -
17.10.2017 18:00:00 20,1 17,0 18 10 WNW 1014,4 -
17.10.2017 17:00:00 24,7 14,3 8 4 ZW 1013,9 20
17.10.2017 16:00:00 25,1 11,7 16 9 ZO 1013,7 -
17.10.2017 15:00:00 25,9 12,4 18 10 ZZO 1014,2 -
17.10.2017 14:00:00 25,3 13,2 16 9 ZZO 1015,3 30
17.10.2017 13:00:00 26,0 13,2 15 8 ZZO 1015,9 -
17.10.2017 12:00:00 24,3 13,0 11 6 ZZO 1016,7 -
17.10.2017 11:00:00 22,7 13,0 16 9 ZO 1017,4 30
17.10.2017 10:00:00 21,0 12,8 15 8 OZO 1017,5 -
17.10.2017 09:00:00 20,1 12,6 16 9 OZO 1017,4 -
17.10.2017 08:00:00 20,6 12,1 11 6 O 1017,5 30
17.10.2017 07:00:00 20,8 13,0 13 7 O 1017,5 -
17.10.2017 06:00:00 20,3 13,5 15 8 O 1017,7 -
17.10.2017 05:00:00 15,1 14,3 5 3 OZO 1018,1 30
17.10.2017 04:00:00 15,1 14,5 0 0 N 1019,2 -
17.10.2017 03:00:00 15,1 14,5 9 5 ZO 1019,7 -
17.10.2017 02:00:00 15,2 14,9 9 5 OZO 1020,7 -
17.10.2017 01:00:00 16,0 15,5 11 6 O 1021,6 -
17.10.2017 00:00:00 16,6 15,3 4 2 O 1022,6 -
16.10.2017 23:00:00 17,8 15,8 5 3 O 1023,0 15
16.10.2017 22:00:00 19,0 16,4 2 1 ONO 1023,4 -
16.10.2017 21:00:00 19,1 16,3 4 2 N 1023,7 -
16.10.2017 20:00:00 19,4 16,6 5 3 NW 1023,7 8
16.10.2017 19:00:00 20,3 16,3 8 4 NNW 1023,3 -
16.10.2017 18:00:00 21,2 16,4 11 6 N 1023,1 -
16.10.2017 17:00:00 22,0 16,3 13 7 NNW 1022,8 8
16.10.2017 16:00:00 22,4 16,7 15 8 NNW 1023,0 -
16.10.2017 15:00:00 23,1 16,8 21 11 NW 1022,8 -
16.10.2017 14:00:00 23,7 17,2 22 12 NW 1022,8 14
16.10.2017 13:00:00 27,9 12,4 22 12 ZZW 1022,2 -
16.10.2017 12:00:00 25,9 13,5 21 11 Z 1021,6 -
16.10.2017 11:00:00 24,5 13,6 28 15 Z 1021,1 40
16.10.2017 10:00:00 24,5 12,5 15 8 Z 1021,2 -
16.10.2017 09:00:00 23,9 12,2 21 11 Z 1020,1 -
16.10.2017 08:00:00 23,5 13,1 29 16 Z 1019,2 40
16.10.2017 07:00:00 23,4 13,4 22 12 ZZO 1018,9 -
16.10.2017 06:00:00 23,4 13,8 2 1 ZO 1018,8 -
16.10.2017 05:00:00 24,4 13,9 16 9 Z 1018,5 15
16.10.2017 04:00:00 24,6 14,4 18 10 ZZW 1018,5 -
16.10.2017 03:00:00 24,6 15,0 9 5 Z 1019,1 -
16.10.2017 02:00:00 24,7 15,1 18 10 ZZO 1019,4 -
16.10.2017 01:00:00 25,0 15,0 16 9 Z 1019,8 -
16.10.2017 00:00:00 25,1 14,8 15 8 Z 1019,6 -
15.10.2017 23:00:00 24,6 14,4 15 8 OZO 1019,8 15
15.10.2017 22:00:00 25,4 13,5 18 10 O 1019,6 -
15.10.2017 21:00:00 26,1 14,2 22 12 O 1019,4 -
15.10.2017 20:00:00 26,3 14,2 16 9 OZO 1019,1 20
15.10.2017 19:00:00 27,3 14,7 21 11 O 1018,9 -
15.10.2017 18:00:00 29,7 15,3 15 8 OZO 1018,8 -
15.10.2017 17:00:00 31,1 15,0 9 5 OZO 1019,0 25
15.10.2017 16:00:00 30,9 16,2 13 7 OZO 1019,5 -
15.10.2017 15:00:00 29,2 14,5 15 8 ZZO 1020,3 -
15.10.2017 14:00:00 28,2 14,8 13 7 ZZO 1021,2 30
15.10.2017 13:00:00 27,4 14,5 13 7 ZO 1021,9 -
15.10.2017 12:00:00 26,6 14,3 16 9 ZO 1022,3 -
15.10.2017 11:00:00 24,4 14,4 18 10 Z 1022,4 30
15.10.2017 10:00:00 23,7 14,3 11 6 ZZO 1022,2 -
15.10.2017 09:00:00 23,0 14,1 13 7 ZO 1021,8 -
15.10.2017 08:00:00 23,0 14,3 11 6 ZO 1021,6 30
15.10.2017 07:00:00 23,0 14,6 18 10 ZO 1021,5 -
15.10.2017 06:00:00 23,2 14,7 9 5 ZO 1021,4 -
15.10.2017 05:00:00 22,7 15,2 18 10 OZO 1021,2 30
15.10.2017 04:00:00 22,8 15,6 16 9 OZO 1021,5 -
15.10.2017 03:00:00 23,0 15,6 18 10 OZO 1021,6 -
15.10.2017 02:00:00 23,4 15,7 18 10 OZO 1021,7 -
15.10.2017 01:00:00 23,3 15,9 18 10 OZO 1021,7 -
15.10.2017 00:00:00 23,1 15,7 11 6 O 1021,7 -
14.10.2017 23:00:00 23,5 15,5 15 8 OZO 1021,6 15
14.10.2017 22:00:00 23,5 15,2 9 5 ZZO 1021,5 -
14.10.2017 21:00:00 24,1 15,0 15 8 OZO 1021,1 -
14.10.2017 20:00:00 24,0 16,0 9 5 OZO 1020,7 40
14.10.2017 19:00:00 27,9 16,6 9 5 OZO 1020,0 -
14.10.2017 18:00:00 30,4 15,9 5 3 ZZO 1019,9 -
14.10.2017 17:00:00 31,5 12,9 8 4 Z 1020,1 40
14.10.2017 16:00:00 30,9 13,5 15 8 Z 1020,4 -
14.10.2017 15:00:00 30,7 13,8 11 6 Z 1020,8 -
14.10.2017 14:00:00 29,2 15,5 13 7 Z 1021,7 25
14.10.2017 13:00:00 27,5 16,7 13 7 OZO 1022,5 -
14.10.2017 12:00:00 25,1 16,7 9 5 OZO 1023,0 -
14.10.2017 11:00:00 21,2 16,7 9 5 ZO 1023,4 9
14.10.2017 10:00:00 18,1 16,6 8 4 OZO 1023,5 -
14.10.2017 09:00:00 15,9 15,4 8 4 OZO 1023,6 -
14.10.2017 08:00:00 16,3 15,0 5 3 OZO 1023,8 7
14.10.2017 07:00:00 17,4 15,9 5 3 ZO 1023,8 -
14.10.2017 06:00:00 17,7 15,9 5 3 O 1024,3 -
14.10.2017 05:00:00 17,8 16,0 4 2 OZO 1024,3 8
14.10.2017 04:00:00 17,9 16,2 2 1 ZO 1024,8 -
14.10.2017 03:00:00 17,8 16,3 0 0 N 1025,3 -
14.10.2017 02:00:00 18,0 16,5 4 2 O 1025,4 -
14.10.2017 01:00:00 17,9 16,2 0 0 N 1025,6 -
14.10.2017 00:00:00 17,9 16,1 0 0 N 1025,7 -
13.10.2017 23:00:00 18,3 15,9 0 0 N 1025,7 7
13.10.2017 22:00:00 18,3 15,9 0 0 N 1025,6 -
13.10.2017 21:00:00 - - - - - - -
13.10.2017 20:00:00 18,6 16,0 4 2 NNW 1025,1 7
13.10.2017 19:00:00 19,2 16,2 11 6 NNW 1024,7 -
13.10.2017 18:00:00 19,7 16,5 9 5 NNW 1024,4 -
13.10.2017 17:00:00 20,0 16,8 15 8 NW 1024,2 7
13.10.2017 16:00:00 21,4 17,1 18 10 NW 1023,8 -
13.10.2017 15:00:00 22,5 17,8 18 10 WNW 1023,4 -
13.10.2017 14:00:00 22,6 17,6 15 8 WNW 1023,7 8
13.10.2017 13:00:00 23,1 17,5 13 7 WNW 1024,1 -
13.10.2017 12:00:00 23,2 15,6 4 2 WNW 1024,0 -
13.10.2017 11:00:00 19,1 14,5 2 1 W 1024,1 20
13.10.2017 10:00:00 16,1 13,8 0 0 N 1024,1 -
13.10.2017 09:00:00 14,1 12,7 4 2 O 1023,5 -
13.10.2017 08:00:00 14,5 12,9 0 0 N 1023,1 15
13.10.2017 07:00:00 15,5 13,3 4 2 NO 1023,0 -
13.10.2017 06:00:00 14,6 13,1 4 2 ONO 1022,8 -
13.10.2017 05:00:00 14,3 13,5 4 2 NO 1022,9 15
13.10.2017 04:00:00 13,9 13,4 2 1 O 1023,3 -
13.10.2017 03:00:00 14,1 13,8 9 5 O 1023,4 -
13.10.2017 02:00:00 14,0 13,8 8 4 O 1023,6 -
13.10.2017 01:00:00 14,1 13,8 5 3 O 1024,0 -
13.10.2017 00:00:00 14,3 13,8 8 4 O 1024,4 -
12.10.2017 23:00:00 15,2 14,6 0 0 N 1024,7 12
12.10.2017 22:00:00 15,5 14,3 4 2 ZO 1024,4 -
12.10.2017 21:00:00 16,8 15,0 4 2 ZO 1024,1 -
12.10.2017 20:00:00 18,8 15,7 0 0 N 1024,1 20
12.10.2017 19:00:00 20,9 15,7 9 5 WNW 1023,5 -
12.10.2017 18:00:00 22,8 15,6 13 7 WNW 1023,2 -
12.10.2017 17:00:00 24,1 15,5 13 7 W 1023,0 25
12.10.2017 16:00:00 25,0 15,6 8 4 W 1023,3 -
12.10.2017 15:00:00 25,5 14,1 0 0 N 1023,8 -
12.10.2017 14:00:00 23,8 14,4 5 3 O 1024,5 30
12.10.2017 13:00:00 22,1 14,4 8 4 OZO 1025,1 -
12.10.2017 12:00:00 19,1 14,4 2 1 Z 1025,7 -
12.10.2017 11:00:00 15,7 14,4 5 3 ZO 1026,0 -
12.10.2017 10:00:00 13,0 13,0 0 0 N 1026,2 -
12.10.2017 09:00:00 11,7 11,7 5 3 ZZO 1025,8 -
12.10.2017 08:00:00 11,0 11,0 5 3 OZO 1025,8 2,4
12.10.2017 07:00:00 11,3 11,3 4 2 O 1025,5 -
12.10.2017 06:00:00 11,6 11,6 8 4 OZO 1025,4 -
12.10.2017 05:00:00 12,4 12,4 2 1 O 1025,3 15

tt = temperatuur
td = dauwpunt
ff = windsnelheid
dd = windrichting
ppp = luchtdruk
vv = zicht

Weerstations in de omgeving